QPF
0.00 0.00 0.00 0.00 0.00 0.01 0.00 0.00 0.00 0.00 0.00 0.00 0.00 0.00 0.00 0.00 0.01 0.03 0.02 0.02 0.02 0.03 0.03 0.02 0.01 0.01 0.01 0.01 0.01 0.01 0.01 0.02 0.03 0.04 0.04 0.04 0.03 0.03 0.02 0.02 0.02 0.03 0.02 0.01 0.01 0.01 0.01 0.02 0.02
0.00 0.00 0.00 0.00 0.00 0.01 0.00 0.00 0.00 0.00 0.00 0.00 0.00 0.00 0.00 0.00 0.01 0.02 0.02 0.02 0.03 0.03 0.03 0.02 0.01 0.01 0.01 0.01 0.01 0.01 0.01 0.02 0.03 0.02 0.02 0.03 0.03 0.04 0.04 0.03 0.02 0.02 0.02 0.02 0.02 0.02 0.02 0.01 0.01
0.00 0.00 0.00 0.00 0.00 0.01 0.01 0.00 0.00 0.00 0.00 0.00 0.01 0.00 0.00 0.01 0.01 0.02 0.02 0.04 0.05 0.04 0.03 0.01 0.01 0.01 0.01 0.01 0.01 0.01 0.02 0.02 0.03 0.02 0.02 0.03 0.03 0.04 0.04 0.03 0.02 0.02 0.02 0.02 0.01 0.01 0.01 0.01 0.01
0.00 0.00 0.00 0.00 0.01 0.01 0.01 0.00 0.00 0.00 0.00 0.00 0.01 0.01 0.01 0.02 0.03 0.04 0.04 0.05 0.05 0.04 0.03 0.01 0.01 0.01 0.01 0.01 0.01 0.01 0.01 0.02 0.02 0.03 0.03 0.03 0.02 0.02 0.02 0.02 0.02 0.02 0.01 0.01 0.00 0.00 0.00 0.00 0.00
0.00 0.01 0.00 0.01 0.02 0.01 0.01 0.00 0.00 0.00 0.00 0.00 0.01 0.02 0.01 0.02 0.04 0.05 0.04 0.04 0.03 0.03 0.03 0.01 0.01 0.01 0.01 0.01 0.01 0.01 0.01 0.01 0.02 0.03 0.05 0.04 0.02 0.02 0.03 0.03 0.02 0.02 0.02 0.02 0.01 0.00 0.00 0.00 0.00
0.01 0.01 0.01 0.01 0.01 0.00 0.00 0.00 0.00 0.00 0.00 0.00 0.00 0.02 0.02 0.03 0.03 0.04 0.03 0.02 0.01 0.02 0.02 0.02 0.01 0.01 0.01 0.01 0.02 0.02 0.01 0.01 0.01 0.02 0.03 0.03 0.03 0.02 0.02 0.02 0.03 0.03 0.02 0.02 0.01 0.00 0.00 0.00 0.00
0.01 0.01 0.01 0.01 0.01 0.00 0.00 0.00 0.00 0.00 0.00 0.00 0.00 0.01 0.02 0.02 0.03 0.02 0.02 0.01 0.01 0.01 0.01 0.01 0.03 0.03 0.02 0.02 0.02 0.02 0.01 0.01 0.01 0.01 0.01 0.01 0.02 0.02 0.02 0.02 0.02 0.03 0.02 0.01 0.01 0.01 0.00 0.00 0.00
0.01 0.01 0.01 0.01 0.01 0.00 0.00 0.00 0.00 0.00 0.00 0.00 0.00 0.01 0.02 0.03 0.02 0.02 0.01 0.01 0.01 0.01 0.01 0.01 0.02 0.03 0.03 0.03 0.02 0.02 0.02 0.01 0.01 0.01 0.00 0.00 0.01 0.01 0.02 0.02 0.02 0.03 0.02 0.02 0.01 0.01 0.00 0.00 0.00
0.01 0.01 0.01 0.01 0.01 0.00 0.00 0.00 0.00 0.01 0.00 0.00 0.00 0.00 0.01 0.03 0.03 0.04 0.02 0.02 0.01 0.01 0.02 0.02 0.03 0.03 0.03 0.02 0.02 0.02 0.02 0.01 0.01 0.01 0.00 0.00 0.01 0.02 0.03 0.04 0.03 0.03 0.02 0.02 0.02 0.01 0.01 0.00 0.00
0.02 0.02 0.01 0.00 0.01 0.00 0.00 0.00 0.00 0.01 0.01 0.01 0.01 0.01 0.02 0.02 0.03 0.04 0.04 0.03 0.01 0.01 0.01 0.01 0.01 0.02 0.03 0.03 0.03 0.04 0.03 0.03 0.02 0.02 0.01 0.01 0.02 0.03 0.03 0.03 0.03 0.02 0.02 0.02 0.02 0.02 0.01 0.00 0.00
0.01 0.01 0.01 0.00 0.00 0.00 0.00 0.00 0.01 0.01 0.02 0.02 0.01 0.02 0.02 0.02 0.04 0.04 0.04 0.03 0.01 0.01 0.01 0.01 0.01 0.01 0.02 0.03 0.03 0.04 0.04 0.04 0.03 0.03 0.02 0.02 0.02 0.03 0.03 0.02 0.02 0.03 0.02 0.03 0.04 0.04 0.02 0.01 0.01
0.01 0.01 0.01 0.00 0.01 0.01 0.00 0.00 0.01 0.01 0.03 0.03 0.01 0.01 0.02 0.03 0.03 0.04 0.04 0.03 0.02 0.01 0.01 0.01 0.01 0.01 0.01 0.02 0.02 0.03 0.04 0.05 0.04 0.04 0.02 0.02 0.02 0.02 0.02 0.02 0.02 0.02 0.03 0.03 0.04 0.05 0.05 0.04 0.02
0.01 0.01 0.01 0.01 0.01 0.01 0.00 0.00 0.01 0.01 0.02 0.02 0.02 0.01 0.02 0.03 0.03 0.03 0.03 0.03 0.02 0.01 0.01 0.01 0.01 0.01 0.01 0.01 0.02 0.02 0.03 0.04 0.04 0.05 0.04 0.03 0.02 0.02 0.02 0.02 0.02 0.02 0.02 0.03 0.04 0.04 0.05 0.05 0.04
0.01 0.01 0.01 0.02 0.01 0.02 0.01 0.01 0.02 0.02 0.02 0.01 0.02 0.01 0.01 0.02 0.02 0.02 0.02 0.02 0.02 0.02 0.01 0.01 0.01 0.01 0.01 0.01 0.02 0.02 0.03 0.03 0.04 0.04 0.04 0.04 0.03 0.03 0.03 0.03 0.02 0.02 0.02 0.03 0.04 0.04 0.04 0.04 0.04
0.01 0.02 0.01 0.02 0.02 0.02 0.02 0.02 0.02 0.03 0.03 0.03 0.02 0.01 0.01 0.01 0.01 0.01 0.01 0.01 0.01 0.01 0.01 0.01 0.01 0.01 0.01 0.01 0.02 0.02 0.02 0.02 0.02 0.03 0.03 0.03 0.03 0.04 0.04 0.04 0.03 0.03 0.03 0.03 0.03 0.03 0.04 0.05 0.04
0.02 0.02 0.02 0.02 0.01 0.01 0.02 0.03 0.02 0.02 0.03 0.03 0.03 0.02 0.01 0.01 0.01 0.01 0.01 0.01 0.01 0.01 0.01 0.01 0.01 0.01 0.01 0.01 0.02 0.01 0.01 0.01 0.01 0.01 0.02 0.02 0.02 0.03 0.04 0.04 0.03 0.03 0.03 0.02 0.02 0.02 0.03 0.04 0.03
0.03 0.02 0.02 0.02 0.02 0.01 0.01 0.02 0.02 0.01 0.02 0.03 0.03 0.03 0.02 0.01 0.01 0.01 0.01 0.01 0.01 0.02 0.02 0.02 0.01 0.01 0.01 0.01 0.01 0.01 0.01 0.01 0.01 0.01 0.01 0.02 0.02 0.02 0.02 0.03 0.03 0.03 0.04 0.04 0.03 0.02 0.02 0.02 0.02
0.02 0.01 0.01 0.01 0.02 0.01 0.01 0.01 0.01 0.01 0.02 0.02 0.03 0.03 0.03 0.02 0.02 0.02 0.02 0.02 0.02 0.02 0.02 0.02 0.03 0.03 0.02 0.02 0.02 0.02 0.02 0.01 0.01 0.02 0.02 0.02 0.02 0.03 0.04 0.04 0.03 0.03 0.04 0.03 0.03 0.02 0.02 0.02 0.03
0.01 0.01 0.01 0.01 0.01 0.02 0.02 0.02 0.01 0.01 0.01 0.02 0.03 0.03 0.03 0.02 0.02 0.02 0.03 0.03 0.02 0.02 0.02 0.02 0.02 0.03 0.02 0.02 0.02 0.02 0.02 0.02 0.02 0.02 0.02 0.02 0.02 0.02 0.03 0.04 0.04 0.04 0.04 0.03 0.03 0.03 0.03 0.03 0.03
0.01 0.01 0.01 0.02 0.02 0.02 0.02 0.02 0.02 0.01 0.01 0.02 0.02 0.04 0.04 0.04 0.03 0.02 0.02 0.02 0.02 0.02 0.01 0.02 0.02 0.02 0.02 0.02 0.01 0.01 0.02 0.02 0.02 0.02 0.02 0.02 0.02 0.02 0.02 0.02 0.02 0.03 0.03 0.03 0.03 0.03 0.03 0.03 0.04
0.01 0.01 0.01 0.02 0.02 0.02 0.02 0.03 0.02 0.02 0.01 0.02 0.02 0.02 0.04 0.05 0.06 0.05 0.04 0.03 0.02 0.02 0.02 0.02 0.02 0.02 0.02 0.02 0.02 0.01 0.01 0.01 0.02 0.01 0.01 0.01 0.01 0.01 0.01 0.01 0.02 0.03 0.03 0.04 0.03 0.03 0.03 0.03 0.04
0.02 0.02 0.01 0.02 0.03 0.04 0.03 0.04 0.02 0.02 0.01 0.01 0.01 0.02 0.03 0.03 0.04 0.04 0.04 0.04 0.03 0.02 0.03 0.02 0.02 0.02 0.02 0.02 0.02 0.02 0.01 0.01 0.01 0.01 0.01 0.01 0.01 0.01 0.02 0.02 0.02 0.03 0.03 0.03 0.03 0.03 0.04 0.04 0.04
0.02 0.02 0.02 0.03 0.03 0.04 0.04 0.03 0.01 0.01 0.01 0.01 0.01 0.01 0.02 0.03 0.03 0.04 0.04 0.04 0.05 0.04 0.03 0.03 0.02 0.02 0.03 0.03 0.03 0.03 0.03 0.02 0.02 0.02 0.02 0.03 0.03 0.03 0.03 0.03 0.02 0.02 0.02 0.02 0.02 0.02 0.03 0.03 0.04
0.01 0.02 0.02 0.02 0.04 0.05 0.03 0.02 0.01 0.00 0.00 0.00 0.00 0.01 0.01 0.02 0.02 0.03 0.03 0.03 0.04 0.04 0.03 0.02 0.03 0.03 0.04 0.04 0.05 0.04 0.04 0.04 0.04 0.03 0.02 0.02 0.03 0.03 0.02 0.02 0.02 0.02 0.02 0.02 0.02 0.02 0.03 0.03 0.03
0.02 0.03 0.04 0.04 0.04 0.03 0.01 0.01 0.01 0.00 0.00 0.00 0.01 0.01 0.01 0.01 0.01 0.01 0.01 0.02 0.03 0.03 0.03 0.03 0.03 0.04 0.05 0.05 0.06 0.06 0.06 0.06 0.05 0.05 0.03 0.03 0.03 0.03 0.03 0.02 0.02 0.02 0.01 0.01 0.01 0.01 0.01 0.01 0.01
0.02 0.03 0.04 0.03 0.02 0.01 0.01 0.01 0.01 0.00 0.00 0.00 0.00 0.01 0.01 0.01 0.01 0.00 0.01 0.01 0.01 0.01 0.01 0.01 0.01 0.02 0.03 0.04 0.04 0.05 0.06 0.07 0.07 0.06 0.06 0.04 0.03 0.03 0.03 0.03 0.03 0.02 0.02 0.01 0.01 0.01 0.01 0.01 0.01
0.02 0.02 0.02 0.03 0.02 0.01 0.01 0.01 0.01 0.00 0.00 0.00 0.00 0.00 0.00 0.00 0.00 0.00 0.01 0.01 0.01 0.00 0.00 0.00 0.00 0.01 0.02 0.03 0.04 0.04 0.05 0.07 0.08 0.08 0.08 0.07 0.06 0.05 0.04 0.04 0.04 0.03 0.03 0.02 0.02 0.02 0.02 0.02 0.02
0.01 0.02 0.02 0.04 0.03 0.02 0.01 0.01 0.02 0.01 0.01 0.00 0.00 0.00 0.00 0.00 0.00 0.00 0.00 0.00 0.00 0.00 0.00 0.00 0.00 0.00 0.01 0.01 0.02 0.04 0.04 0.04 0.05 0.06 0.07 0.07 0.07 0.07 0.06 0.06 0.06 0.06 0.05 0.05 0.05 0.04 0.03 0.03 0.02
0.01 0.02 0.04 0.04 0.02 0.02 0.03 0.02 0.01 0.01 0.01 0.01 0.00 0.01 0.01 0.00 0.00 0.00 0.00 0.00 0.00 0.00 0.00 0.00 0.00 0.00 0.01 0.01 0.01 0.02 0.04 0.05 0.05 0.06 0.07 0.08 0.08 0.09 0.09 0.09 0.08 0.07 0.07 0.06 0.04 0.03 0.03 0.02 0.02
0.02 0.02 0.02 0.03 0.03 0.02 0.02 0.02 0.01 0.01 0.02 0.01 0.00 0.00 0.00 0.00 0.00 0.00 0.00 0.01 0.00 0.00 0.00 0.00 0.00 0.00 0.01 0.01 0.01 0.02 0.03 0.04 0.05 0.06 0.06 0.06 0.07 0.07 0.07 0.08 0.07 0.06 0.05 0.03 0.03 0.03 0.03 0.03 0.02
MSLP
1012.95 1013.19 1013.82 1014.73 1015.79 1016.81 1017.63 1018.16 1018.41 1018.47 1018.49 1018.63 1019.02 1019.70 1020.61 1021.62 1022.52 1023.13 1023.33 1023.09 1022.48 1021.63 1020.74 1019.98 1019.49 1019.30 1019.36 1019.57 1019.81 1019.96 1019.95 1019.79 1019.51 1019.20 1018.93 1018.77 1018.73 1018.77 1018.86 1018.94 1018.97 1018.94 1018.87 1018.81 1018.79 1018.85 1018.99 1019.19 1019.38
1013.23 1013.66 1014.47 1015.57 1016.76 1017.88 1018.76 1019.33 1019.60 1019.68 1019.74 1019.95 1020.42 1021.18 1022.17 1023.23 1024.16 1024.77 1024.92 1024.59 1023.86 1022.88 1021.84 1020.92 1020.28 1019.95 1019.88 1019.98 1020.14 1020.23 1020.19 1020.02 1019.76 1019.47 1019.23 1019.08 1019.03 1019.06 1019.10 1019.12 1019.09 1018.99 1018.87 1018.78 1018.75 1018.82 1019.00 1019.23 1019.48
1013.51 1014.13 1015.14 1016.39 1017.73 1018.94 1019.90 1020.52 1020.85 1020.98 1021.10 1021.38 1021.91 1022.74 1023.77 1024.85 1025.77 1026.33 1026.42 1026.02 1025.19 1024.11 1022.97 1021.94 1021.18 1020.73 1020.54 1020.53 1020.59 1020.60 1020.52 1020.32 1020.05 1019.77 1019.55 1019.41 1019.35 1019.35 1019.35 1019.31 1019.21 1019.06 1018.89 1018.75 1018.70 1018.77 1018.95 1019.21 1019.48
1013.85 1014.66 1015.85 1017.26 1018.72 1020.03 1021.06 1021.76 1022.16 1022.37 1022.57 1022.91 1023.49 1024.34 1025.35 1026.38 1027.23 1027.71 1027.72 1027.25 1026.36 1025.24 1024.05 1022.98 1022.16 1021.63 1021.35 1021.25 1021.21 1021.14 1020.99 1020.75 1020.46 1020.17 1019.94 1019.80 1019.73 1019.70 1019.66 1019.58 1019.43 1019.22 1019.00 1018.83 1018.74 1018.78 1018.94 1019.17 1019.43
1014.35 1015.34 1016.69 1018.23 1019.79 1021.19 1022.29 1023.07 1023.55 1023.85 1024.12 1024.51 1025.11 1025.92 1026.85 1027.77 1028.49 1028.84 1028.75 1028.21 1027.30 1026.18 1025.02 1023.97 1023.17 1022.63 1022.32 1022.15 1022.04 1021.89 1021.67 1021.37 1021.04 1020.73 1020.48 1020.32 1020.23 1020.18 1020.12 1020.00 1019.81 1019.56 1019.30 1019.08 1018.95 1018.93 1019.02 1019.20 1019.39
1015.09 1016.26 1017.73 1019.37 1020.99 1022.43 1023.59 1024.43 1024.99 1025.36 1025.70 1026.12 1026.70 1027.42 1028.22 1028.97 1029.50 1029.69 1029.48 1028.88 1027.98 1026.92 1025.85 1024.90 1024.18 1023.70 1023.40 1023.22 1023.06 1022.85 1022.57 1022.22 1021.84 1021.49 1021.21 1021.02 1020.91 1020.83 1020.74 1020.60 1020.39 1020.12 1019.83 1019.56 1019.37 1019.27 1019.27 1019.34 1019.43
1016.17 1017.47 1019.03 1020.70 1022.32 1023.77 1024.93 1025.80 1026.40 1026.84 1027.22 1027.64 1028.17 1028.78 1029.41 1029.95 1030.28 1030.29 1029.96 1029.32 1028.45 1027.49 1026.55 1025.76 1025.18 1024.80 1024.56 1024.40 1024.22 1023.98 1023.65 1023.25 1022.83 1022.44 1022.13 1021.91 1021.77 1021.67 1021.56 1021.40 1021.17 1020.89 1020.57 1020.26 1020.00 1019.81 1019.69 1019.63 1019.59
1017.57 1018.97 1020.55 1022.19 1023.76 1025.13 1026.25 1027.09 1027.70 1028.16 1028.56 1028.97 1029.43 1029.92 1030.37 1030.71 1030.84 1030.70 1030.27 1029.61 1028.80 1027.96 1027.19 1026.57 1026.14 1025.89 1025.73 1025.61 1025.44 1025.18 1024.83 1024.40 1023.95 1023.53 1023.19 1022.95 1022.77 1022.65 1022.52 1022.34 1022.10 1021.80 1021.46 1021.11 1020.79 1020.51 1020.28 1020.08 1019.89
1019.24 1020.68 1022.23 1023.78 1025.21 1026.45 1027.45 1028.22 1028.79 1029.23 1029.63 1030.01 1030.41 1030.79 1031.10 1031.28 1031.25 1030.99 1030.51 1029.86 1029.13 1028.41 1027.81 1027.35 1027.07 1026.92 1026.84 1026.76 1026.60 1026.35 1025.99 1025.55 1025.10 1024.68 1024.33 1024.06 1023.86 1023.70 1023.54 1023.34 1023.09 1022.77 1022.41 1022.03 1021.66 1021.30 1020.97 1020.65 1020.32
1021.03 1022.47 1023.94 1025.34 1026.59 1027.63 1028.47 1029.11 1029.60 1030.01 1030.37 1030.73 1031.08 1031.38 1031.60 1031.67 1031.55 1031.23 1030.74 1030.14 1029.50 1028.92 1028.45 1028.13 1027.95 1027.87 1027.83 1027.77 1027.62 1027.37 1027.02 1026.60 1026.17 1025.77 1025.43 1025.16 1024.94 1024.76 1024.56 1024.33 1024.05 1023.71 1023.33 1022.93 1022.52 1022.11 1021.70 1021.28 1020.84
1022.79 1024.20 1025.55 1026.76 1027.79 1028.61 1029.25 1029.73 1030.12 1030.47 1030.80 1031.14 1031.46 1031.73 1031.90 1031.93 1031.79 1031.48 1031.03 1030.51 1029.98 1029.50 1029.14 1028.90 1028.77 1028.71 1028.66 1028.57 1028.41 1028.17 1027.84 1027.47 1027.09 1026.73 1026.42 1026.17 1025.94 1025.73 1025.50 1025.23 1024.91 1024.55 1024.16 1023.74 1023.31 1022.87 1022.41 1021.92 1021.41
1024.38 1025.73 1026.94 1027.95 1028.76 1029.36 1029.80 1030.13 1030.41 1030.68 1030.98 1031.30 1031.62 1031.89 1032.06 1032.11 1032.00 1031.75 1031.39 1030.97 1030.54 1030.16 1029.86 1029.65 1029.51 1029.41 1029.31 1029.17 1028.98 1028.72 1028.42 1028.11 1027.79 1027.51 1027.26 1027.03 1026.81 1026.58 1026.31 1026.00 1025.65 1025.26 1024.85 1024.42 1023.98 1023.53 1023.05 1022.52 1021.96
1025.67 1026.95 1028.03 1028.87 1029.48 1029.89 1030.17 1030.37 1030.55 1030.77 1031.04 1031.35 1031.67 1031.95 1032.16 1032.25 1032.21 1032.05 1031.80 1031.49 1031.16 1030.86 1030.59 1030.37 1030.18 1030.00 1029.80 1029.58 1029.34 1029.07 1028.80 1028.54 1028.31 1028.11 1027.93 1027.75 1027.54 1027.30 1027.00 1026.64 1026.24 1025.82 1025.39 1024.96 1024.53 1024.07 1023.59 1023.05 1022.46
1026.63 1027.83 1028.80 1029.51 1029.99 1030.27 1030.44 1030.56 1030.69 1030.88 1031.12 1031.42 1031.73 1032.02 1032.25 1032.39 1032.43 1032.36 1032.22 1032.01 1031.78 1031.53 1031.28 1031.02 1030.76 1030.48 1030.19 1029.88 1029.58 1029.29 1029.05 1028.85 1028.70 1028.58 1028.47 1028.33 1028.14 1027.89 1027.55 1027.16 1026.72 1026.27 1025.83 1025.39 1024.96 1024.52 1024.04 1023.49 1022.88
1027.30 1028.43 1029.31 1029.94 1030.35 1030.59 1030.72 1030.82 1030.94 1031.11 1031.34 1031.61 1031.91 1032.18 1032.41 1032.57 1032.65 1032.66 1032.60 1032.48 1032.32 1032.12 1031.88 1031.60 1031.28 1030.92 1030.54 1030.16 1029.81 1029.51 1029.28 1029.13 1029.05 1028.99 1028.93 1028.83 1028.65 1028.38 1028.02 1027.59 1027.12 1026.65 1026.18 1025.75 1025.32 1024.89 1024.41 1023.87 1023.23
1027.77 1028.82 1029.64 1030.24 1030.64 1030.89 1031.06 1031.20 1031.34 1031.52 1031.74 1031.99 1032.23 1032.46 1032.65 1032.79 1032.88 1032.92 1032.91 1032.85 1032.75 1032.60 1032.38 1032.10 1031.75 1031.34 1030.92 1030.49 1030.12 1029.81 1029.60 1029.48 1029.43 1029.41 1029.38 1029.28 1029.10 1028.81 1028.42 1027.96 1027.47 1026.97 1026.51 1026.07 1025.66 1025.23 1024.76 1024.20 1023.55
1028.16 1029.12 1029.89 1030.48 1030.91 1031.22 1031.47 1031.68 1031.88 1032.09 1032.30 1032.50 1032.69 1032.84 1032.95 1033.03 1033.09 1033.12 1033.13 1033.11 1033.06 1032.95 1032.77 1032.52 1032.18 1031.79 1031.36 1030.94 1030.56 1030.26 1030.06 1029.94 1029.90 1029.87 1029.82 1029.71 1029.49 1029.17 1028.76 1028.28 1027.77 1027.28 1026.81 1026.39 1025.98 1025.56 1025.09 1024.53 1023.85
1028.56 1029.41 1030.12 1030.71 1031.18 1031.57 1031.91 1032.20 1032.47 1032.71 1032.91 1033.06 1033.17 1033.23 1033.25 1033.25 1033.25 1033.24 1033.25 1033.25 1033.23 1033.18 1033.06 1032.87 1032.59 1032.25 1031.87 1031.49 1031.14 1030.85 1030.65 1030.52 1030.43 1030.36 1030.26 1030.09 1029.83 1029.47 1029.03 1028.54 1028.04 1027.55 1027.11 1026.70 1026.31 1025.91 1025.44 1024.87 1024.18
1029.05 1029.76 1030.39 1030.95 1031.44 1031.89 1032.29 1032.65 1032.97 1033.22 1033.41 1033.52 1033.56 1033.54 1033.48 1033.40 1033.33 1033.29 1033.28 1033.29 1033.31 1033.31 1033.26 1033.14 1032.96 1032.70 1032.40 1032.09 1031.79 1031.52 1031.31 1031.14 1031.00 1030.85 1030.67 1030.42 1030.09 1029.69 1029.23 1028.74 1028.25 1027.80 1027.39 1027.01 1026.65 1026.26 1025.81 1025.25 1024.55
1029.65 1030.20 1030.72 1031.20 1031.67 1032.12 1032.54 1032.92 1033.25 1033.49 1033.65 1033.73 1033.72 1033.64 1033.53 1033.41 1033.31 1033.25 1033.24 1033.26 1033.31 1033.35 1033.37 1033.34 1033.24 1033.09 1032.89 1032.65 1032.41 1032.17 1031.94 1031.72 1031.50 1031.26 1030.98 1030.65 1030.26 1029.82 1029.35 1028.87 1028.41 1028.00 1027.63 1027.30 1026.97 1026.61 1026.18 1025.64 1024.96
1030.35 1030.72 1031.09 1031.46 1031.85 1032.23 1032.59 1032.92 1033.20 1033.40 1033.52 1033.56 1033.53 1033.45 1033.34 1033.24 1033.16 1033.12 1033.12 1033.17 1033.24 1033.32 1033.39 1033.43 1033.41 1033.35 1033.24 1033.08 1032.89 1032.67 1032.43 1032.17 1031.88 1031.55 1031.18 1030.77 1030.32 1029.85 1029.38 1028.93 1028.52 1028.15 1027.83 1027.54 1027.25 1026.92 1026.51 1026.00 1025.37
1031.11 1031.31 1031.51 1031.73 1031.97 1032.21 1032.44 1032.65 1032.81 1032.92 1032.97 1032.99 1032.97 1032.92 1032.88 1032.85 1032.85 1032.88 1032.94 1033.02 1033.13 1033.23 1033.32 1033.39 1033.43 1033.42 1033.38 1033.28 1033.14 1032.95 1032.71 1032.41 1032.07 1031.67 1031.24 1030.77 1030.30 1029.82 1029.36 1028.95 1028.58 1028.26 1027.97 1027.71 1027.45 1027.14 1026.76 1026.29 1025.70
1031.88 1031.92 1031.97 1032.03 1032.08 1032.13 1032.15 1032.16 1032.15 1032.12 1032.09 1032.06 1032.06 1032.09 1032.16 1032.26 1032.39 1032.53 1032.67 1032.81 1032.94 1033.05 1033.14 1033.22 1033.27 1033.29 1033.28 1033.23 1033.13 1032.97 1032.74 1032.45 1032.08 1031.65 1031.19 1030.71 1030.22 1029.76 1029.33 1028.95 1028.61 1028.32 1028.06 1027.81 1027.55 1027.25 1026.88 1026.43 1025.89
1032.62 1032.56 1032.48 1032.38 1032.23 1032.05 1031.83 1031.59 1031.35 1031.13 1030.98 1030.91 1030.93 1031.05 1031.25 1031.51 1031.79 1032.07 1032.32 1032.53 1032.68 1032.78 1032.85 1032.90 1032.93 1032.96 1032.97 1032.95 1032.89 1032.77 1032.58 1032.30 1031.95 1031.54 1031.09 1030.61 1030.15 1029.71 1029.31 1028.96 1028.65 1028.37 1028.10 1027.83 1027.54 1027.21 1026.84 1026.40 1025.89
1033.30 1033.20 1033.04 1032.81 1032.48 1032.07 1031.59 1031.07 1030.57 1030.14 1029.83 1029.69 1029.71 1029.90 1030.23 1030.65 1031.09 1031.52 1031.87 1032.14 1032.32 1032.41 1032.45 1032.46 1032.46 1032.47 1032.49 1032.50 1032.48 1032.42 1032.28 1032.06 1031.76 1031.40 1030.98 1030.55 1030.12 1029.72 1029.34 1029.00 1028.69 1028.39 1028.08 1027.76 1027.41 1027.03 1026.62 1026.17 1025.67
1033.92 1033.84 1033.65 1033.33 1032.85 1032.23 1031.50 1030.72 1029.95 1029.29 1028.81 1028.56 1028.55 1028.79 1029.21 1029.75 1030.33 1030.88 1031.33 1031.66 1031.86 1031.95 1031.96 1031.93 1031.91 1031.91 1031.93 1031.98 1032.02 1032.02 1031.96 1031.81 1031.59 1031.29 1030.93 1030.55 1030.16 1029.79 1029.42 1029.08 1028.74 1028.39 1028.02 1027.61 1027.18 1026.73 1026.25 1025.77 1025.27
1034.46 1034.45 1034.28 1033.91 1033.33 1032.55 1031.60 1030.58 1029.57 1028.69 1028.03 1027.65 1027.58 1027.81 1028.27 1028.89 1029.56 1030.19 1030.71 1031.09 1031.31 1031.40 1031.40 1031.36 1031.33 1031.34 1031.40 1031.49 1031.59 1031.67 1031.69 1031.63 1031.49 1031.26 1030.97 1030.63 1030.27 1029.91 1029.54 1029.17 1028.78 1028.36 1027.91 1027.41 1026.89 1026.34 1025.79 1025.25 1024.73
1034.94 1035.00 1034.86 1034.49 1033.84 1032.95 1031.85 1030.64 1029.43 1028.36 1027.54 1027.03 1026.87 1027.05 1027.49 1028.12 1028.82 1029.49 1030.05 1030.45 1030.69 1030.80 1030.82 1030.80 1030.80 1030.84 1030.95 1031.11 1031.28 1031.44 1031.54 1031.56 1031.48 1031.32 1031.07 1030.77 1030.42 1030.05 1029.66 1029.25 1028.80 1028.30 1027.76 1027.18 1026.56 1025.93 1025.31 1024.72 1024.17
1035.32 1035.43 1035.33 1034.95 1034.27 1033.31 1032.12 1030.80 1029.47 1028.28 1027.33 1026.71 1026.45 1026.54 1026.93 1027.50 1028.17 1028.82 1029.37 1029.79 1030.05 1030.19 1030.25 1030.29 1030.35 1030.46 1030.64 1030.88 1031.13 1031.35 1031.52 1031.60 1031.57 1031.44 1031.22 1030.92 1030.57 1030.18 1029.76 1029.29 1028.78 1028.22 1027.60 1026.94 1026.25 1025.56 1024.88 1024.24 1023.66
1035.60 1035.70 1035.59 1035.19 1034.49 1033.50 1032.28 1030.93 1029.56 1028.32 1027.31 1026.62 1026.28 1026.28 1026.57 1027.05 1027.64 1028.23 1028.75 1029.15 1029.44 1029.62 1029.75 1029.86 1030.01 1030.22 1030.48 1030.79 1031.11 1031.39 1031.61 1031.72 1031.71 1031.59 1031.36 1031.06 1030.69 1030.26 1029.80 1029.29 1028.73 1028.11 1027.45 1026.74 1026.01 1025.27 1024.56 1023.89 1023.28
Thickness
5702 5711 5717 5713 5698 5689 5688 5702 5712 5711 5712 5717 5719 5716 5706 5697 5690 5679 5691 5700 5699 5696 5692 5690 5689 5688 5687 5687 5686 5685 5685 5685 5685 5684 5684 5683 5683 5683 5682 5681 5681 5681 5681 5680 5679 5679 5678 5678 5677
5698 5707 5709 5702 5687 5676 5683 5702 5704 5705 5710 5715 5715 5711 5703 5692 5691 5688 5691 5695 5695 5692 5689 5687 5686 5685 5684 5684 5683 5683 5682 5682 5681 5681 5681 5681 5680 5680 5679 5678 5678 5678 5677 5677 5676 5675 5674 5674 5674
5697 5703 5696 5689 5680 5675 5680 5696 5700 5704 5709 5710 5705 5703 5694 5684 5685 5685 5688 5691 5691 5688 5686 5683 5682 5682 5681 5680 5680 5679 5679 5678 5678 5677 5677 5677 5677 5676 5676 5675 5675 5674 5674 5674 5673 5672 5671 5671 5670
5691 5692 5689 5677 5670 5680 5685 5691 5699 5700 5701 5703 5700 5689 5682 5680 5682 5683 5686 5687 5686 5684 5681 5679 5678 5678 5677 5676 5676 5676 5675 5675 5674 5674 5673 5673 5673 5672 5672 5671 5671 5670 5670 5670 5669 5668 5668 5667 5667
5686 5679 5669 5665 5669 5677 5686 5692 5695 5692 5689 5692 5694 5681 5671 5673 5678 5680 5682 5683 5681 5679 5676 5674 5673 5673 5672 5672 5672 5671 5671 5670 5670 5669 5669 5669 5668 5668 5667 5667 5667 5667 5666 5666 5665 5665 5664 5664 5664
5670 5672 5658 5654 5664 5674 5681 5687 5688 5684 5683 5684 5683 5676 5663 5668 5670 5673 5676 5677 5676 5673 5671 5669 5668 5668 5667 5667 5667 5666 5666 5666 5665 5665 5664 5664 5664 5663 5663 5663 5663 5662 5662 5662 5661 5661 5661 5660 5660
5658 5657 5653 5656 5658 5663 5672 5680 5678 5675 5673 5674 5678 5669 5660 5661 5664 5668 5670 5670 5669 5668 5665 5663 5662 5662 5662 5662 5661 5661 5661 5661 5660 5660 5660 5659 5659 5659 5659 5658 5658 5658 5658 5658 5657 5657 5657 5657 5657
5656 5651 5649 5651 5652 5654 5665 5670 5671 5669 5664 5670 5670 5659 5652 5654 5658 5661 5663 5663 5662 5661 5660 5659 5658 5657 5656 5656 5656 5656 5656 5655 5655 5655 5655 5655 5655 5654 5654 5654 5654 5653 5654 5654 5654 5653 5653 5653 5653
5651 5638 5636 5642 5645 5648 5658 5658 5660 5664 5660 5658 5657 5652 5650 5650 5652 5653 5653 5653 5653 5653 5653 5653 5652 5652 5652 5651 5650 5651 5650 5650 5650 5650 5650 5650 5650 5650 5649 5649 5649 5648 5648 5649 5649 5649 5649 5649 5649
5634 5623 5625 5636 5639 5638 5643 5646 5649 5649 5646 5643 5643 5642 5642 5643 5643 5643 5642 5642 5642 5643 5645 5646 5646 5646 5646 5646 5645 5645 5645 5644 5644 5644 5644 5644 5644 5645 5645 5644 5644 5644 5643 5643 5644 5644 5645 5645 5645
5620 5615 5620 5624 5629 5630 5631 5632 5637 5635 5629 5631 5631 5631 5633 5634 5634 5634 5634 5634 5634 5636 5637 5639 5639 5640 5640 5640 5640 5639 5639 5639 5638 5638 5638 5638 5639 5639 5639 5639 5638 5638 5638 5638 5639 5639 5639 5640 5640
5606 5606 5611 5611 5615 5618 5621 5623 5620 5619 5616 5623 5627 5626 5625 5625 5626 5626 5627 5628 5628 5629 5630 5631 5632 5633 5633 5633 5633 5633 5632 5632 5632 5632 5632 5632 5633 5632 5632 5632 5633 5632 5633 5633 5633 5634 5634 5634 5634
5593 5592 5597 5600 5603 5606 5608 5608 5608 5606 5611 5616 5618 5617 5616 5617 5618 5619 5620 5620 5621 5621 5622 5624 5625 5626 5626 5626 5626 5626 5625 5625 5625 5624 5624 5625 5625 5625 5625 5625 5625 5625 5626 5626 5626 5627 5628 5628 5628
5584 5585 5586 5589 5591 5594 5595 5597 5599 5597 5603 5606 5607 5606 5607 5608 5609 5610 5611 5612 5613 5614 5614 5616 5618 5618 5619 5619 5618 5618 5618 5617 5617 5617 5616 5617 5617 5617 5618 5617 5617 5617 5617 5618 5619 5619 5620 5621 5621
5577 5575 5576 5579 5583 5585 5587 5583 5586 5590 5595 5596 5597 5598 5599 5600 5601 5601 5602 5603 5605 5605 5607 5609 5610 5610 5611 5610 5610 5610 5610 5610 5609 5609 5608 5608 5608 5609 5609 5609 5609 5609 5609 5609 5610 5610 5611 5612 5613
5570 5567 5562 5568 5574 5577 5575 5569 5579 5584 5587 5586 5587 5588 5590 5591 5592 5593 5594 5595 5597 5598 5599 5600 5601 5602 5602 5602 5602 5602 5602 5602 5601 5601 5600 5600 5600 5600 5600 5600 5600 5600 5600 5600 5601 5600 5601 5602 5602
5559 5555 5555 5559 5566 5569 5566 5561 5568 5576 5578 5577 5578 5579 5580 5581 5582 5584 5586 5587 5589 5590 5590 5592 5593 5593 5593 5594 5594 5593 5593 5593 5592 5591 5591 5591 5591 5591 5591 5591 5591 5591 5590 5590 5590 5590 5590 5591 5592
5545 5548 5549 5550 5555 5557 5554 5554 5560 5566 5569 5568 5569 5570 5571 5572 5573 5576 5578 5579 5580 5581 5582 5583 5584 5584 5585 5585 5585 5584 5584 5583 5582 5581 5581 5581 5581 5581 5580 5580 5580 5580 5580 5579 5579 5579 5579 5579 5580
5544 5542 5541 5543 5547 5546 5545 5548 5552 5557 5558 5559 5559 5561 5562 5563 5565 5567 5569 5570 5571 5572 5573 5574 5575 5576 5576 5577 5577 5575 5574 5573 5572 5571 5570 5571 5570 5570 5569 5569 5569 5569 5568 5568 5567 5567 5567 5567 5567
5535 5532 5531 5534 5538 5538 5537 5540 5546 5550 5551 5552 5553 5553 5554 5555 5557 5558 5559 5560 5561 5562 5563 5565 5566 5567 5567 5567 5567 5566 5565 5564 5562 5561 5560 5559 5559 5559 5558 5557 5557 5556 5556 5555 5554 5554 5553 5553 5552
5525 5522 5522 5523 5527 5532 5531 5532 5539 5543 5544 5546 5546 5546 5546 5547 5547 5549 5549 5549 5551 5553 5553 5555 5556 5557 5557 5557 5558 5557 5556 5554 5552 5551 5549 5548 5548 5547 5546 5546 5545 5544 5543 5542 5541 5540 5539 5538 5537
5515 5517 5518 5519 5516 5517 5525 5518 5533 5537 5536 5538 5537 5538 5537 5538 5539 5540 5540 5540 5542 5543 5545 5546 5546 5547 5547 5548 5548 5546 5546 5544 5542 5540 5538 5537 5535 5535 5534 5533 5532 5531 5530 5528 5527 5525 5524 5523 5522
5507 5512 5513 5515 5514 5511 5518 5512 5525 5533 5532 5533 5532 5531 5530 5531 5532 5532 5531 5532 5533 5534 5535 5536 5537 5538 5538 5537 5537 5536 5535 5534 5532 5530 5528 5526 5524 5522 5521 5520 5519 5518 5516 5514 5512 5510 5509 5508 5506
5506 5508 5511 5510 5507 5501 5515 5511 5518 5525 5531 5531 5530 5528 5525 5524 5525 5525 5525 5525 5525 5525 5525 5527 5528 5527 5527 5527 5526 5525 5524 5523 5521 5519 5516 5514 5511 5510 5508 5507 5505 5503 5501 5500 5498 5496 5494 5492 5490
5503 5498 5496 5495 5495 5503 5516 5511 5516 5527 5530 5529 5526 5522 5519 5518 5517 5517 5517 5516 5516 5516 5516 5516 5517 5516 5515 5515 5515 5514 5513 5512 5510 5507 5505 5502 5499 5497 5495 5494 5492 5489 5487 5486 5484 5481 5479 5477 5474
5497 5497 5487 5488 5493 5501 5507 5507 5519 5525 5525 5524 5521 5517 5514 5511 5510 5510 5509 5508 5507 5507 5507 5507 5506 5505 5504 5504 5504 5503 5502 5501 5499 5496 5493 5490 5488 5486 5484 5481 5479 5476 5474 5472 5470 5467 5465 5462 5459
5493 5489 5488 5484 5479 5483 5506 5517 5517 5520 5518 5516 5514 5511 5508 5505 5504 5503 5502 5501 5500 5498 5498 5498 5496 5495 5494 5493 5493 5492 5491 5489 5487 5484 5482 5479 5477 5474 5472 5469 5466 5463 5461 5458 5456 5453 5451 5448 5445
5488 5488 5483 5481 5480 5488 5510 5517 5514 5511 5511 5511 5508 5506 5503 5501 5498 5496 5495 5493 5492 5491 5490 5489 5487 5486 5484 5483 5482 5480 5479 5477 5475 5473 5470 5468 5464 5461 5459 5456 5453 5450 5448 5445 5442 5439 5436 5433 5430
5482 5483 5481 5479 5477 5480 5490 5508 5518 5514 5512 5508 5505 5502 5498 5495 5492 5489 5487 5486 5484 5483 5481 5479 5477 5476 5474 5472 5471 5469 5467 5465 5464 5461 5459 5456 5452 5449 5447 5444 5441 5438 5435 5432 5429 5425 5422 5419 5415
5477 5481 5479 5472 5473 5477 5480 5497 5514 5512 5509 5506 5502 5498 5495 5491 5487 5484 5482 5479 5477 5475 5473 5471 5468 5466 5464 5462 5460 5458 5456 5454 5452 5449 5446 5443 5441 5438 5434 5432 5428 5425 5422 5418 5415 5411 5408 5405 5401